Weather History for KBNO - November, 2013

Change the Weather History Date:

Saturday, November 30, 2013

  Actual Average Record
Temperature  
Mean Temperature 38 °F 27 °F  
Max Temperature 50 °F 38 °F 58 °F (1939)
Min Temperature 25 °F 17 °F 1 °F (1957)
Degree Days  
Heating Degree Days 27 38  
Month to date heating degree days 902 951  
Since 1 July heating degree days 1923 2001  
Cooling Degree Days 0 0  
Month to date cooling degree days 0 0  
Year to date cooling degree days 372 215  
Moisture  
Dew Point 31 °F    
Average Humidity 78    
Maximum Humidity 100    
Minimum Humidity 56    
Precipitation  
Precipitation 0.01 in 0.05 in 0.42 in (2012)
Month to date precipitation 0.46 1.17  
Year to date precipitation 6.69 9.37  
Sea Level Pressure  
Sea Level Pressure 30.35 in    
Wind  
Wind Speed 3 mph (West)    
Max Wind Speed 10 mph    
Max Gust Speed 13 mph    
Visibility 10 miles    
Events Rain    
T = Trace of Precipitation, MM = Missing Value Source: NWS Daily Summary

Daily Weather History Graph

Daily Weather History Graph

Search for Another Location

Airport or City:

Trip Planner

Search our weather history database for the weather conditions in past years. The results will help you decide how hot, cold, wet, or windy it might be!

Date:

Astronomy

Nov. 30, 2013 Rise Set
Actual Time 7:08 AM PST 4:20 PM PST
Civil Twilight 6:36 AM PST 4:52 PM PST
Nautical Twilight 6:00 AM PST 5:28 PM PST
Astronomical Twilight 5:26 AM PST 6:02 PM PST
Moon 4:20 AM PST (11/30) 2:51 PM PST (11/30)
Length of Visible Light 10h 16m
Length of Day
9h 12m
Waning Crescent, 6% of the Moon is Illuminated
Nov 30
Waning Crescent
Dec 2
New
Dec 9
First Quarter
Dec 17
Full
Dec 25
Last Quarter

Hourly Weather History & Observations

Time (PST) Temp. Windchill Dew Point Humidity Pressure Visibility Wind Dir Wind Speed Gust Speed Precip Events Conditions
12:53 AM 33.1 °F - 28.0 °F 82% 30.31 in 10.0 mi Calm Calm - N/A   Overcast
1:53 AM 33.1 °F - 28.0 °F 82% 30.31 in 10.0 mi Calm Calm - N/A   Overcast
2:53 AM 30.9 °F 27.5 °F 27.0 °F 85% 30.30 in 10.0 mi West 3.5 mph - N/A   Scattered Clouds
3:53 AM 32.0 °F - 28.0 °F 85% 30.32 in 10.0 mi Calm Calm - N/A   Overcast
4:53 AM 32.0 °F - 28.0 °F 85% 30.36 in 10.0 mi Calm Calm - N/A   Overcast
5:53 AM 34.0 °F 31.0 °F 30.9 °F 89% 30.36 in 10.0 mi WSW 3.5 mph - 0.01 in Rain Light Rain
6:53 AM 36.0 °F - 32.0 °F 86% 30.37 in 10.0 mi Calm Calm - 0.00 in   Overcast
7:53 AM 34.0 °F - 32.0 °F 92% 30.38 in 10.0 mi Calm Calm - N/A   Overcast
8:53 AM 35.1 °F 32.2 °F 33.1 °F 92% 30.39 in 10.0 mi North 3.5 mph - N/A   Overcast
9:53 AM 37.0 °F - 34.0 °F 89% 30.39 in 10.0 mi Calm Calm - 0.00 in   Overcast
10:53 AM 43.0 °F - 36.0 °F 76% 30.38 in 10.0 mi Calm Calm - N/A   Overcast
11:53 AM 44.1 °F - 37.0 °F 76% 30.35 in 10.0 mi Calm Calm - N/A   Overcast
12:53 PM 46.9 °F - 37.0 °F 68% 30.33 in 10.0 mi SSW 6.9 mph - N/A   Overcast
1:53 PM 46.9 °F - 36.0 °F 66% 30.31 in 10.0 mi SSW 9.2 mph - N/A   Partly Cloudy
2:53 PM 48.0 °F - 34.0 °F 58% 30.32 in 10.0 mi WSW 5.8 mph - N/A   Mostly Cloudy
3:53 PM 46.9 °F - 35.1 °F 63% 30.33 in 10.0 mi NW 8.1 mph - N/A   Overcast
4:53 PM 36.0 °F 29.6 °F 30.9 °F 82% 30.36 in 10.0 mi NNW 8.1 mph - N/A   Scattered Clouds
5:53 PM 30.9 °F 24.3 °F 28.0 °F 89% 30.37 in 10.0 mi WSW 6.9 mph - N/A   Clear
6:53 PM 28.0 °F 22.8 °F 27.0 °F 96% 30.39 in 10.0 mi NNW 4.6 mph - N/A   Clear
7:53 PM 26.1 °F 19.4 °F 24.1 °F 92% 30.38 in 10.0 mi North 5.8 mph - N/A   Clear
8:53 PM 25.0 °F 20.7 °F 24.1 °F 96% 30.39 in 10.0 mi ESE 3.5 mph - N/A   Mostly Cloudy
9:53 PM 28.0 °F - 27.0 °F 96% 30.38 in 10.0 mi Calm Calm - N/A   Overcast
10:53 PM 28.9 °F 23.9 °F 27.0 °F 92% 30.37 in 10.0 mi West 4.6 mph - N/A   Clear
11:53 PM 28.9 °F - 28.0 °F 96% 30.34 in 10.0 mi Calm Calm - N/A   Mostly Cloudy